Location: Stara Lesna
(49.1528°N, 20.2911°E)
Time: 17:59:36
(UTC+02:00)

Cosmos 2242 Rocket - Pass Details

Date: 13 July 2020
Orbit: 618 x 652 km, 82.5° (Epoch: 11 August)

Event Time Altitude Azimuth Distance (km) Brightness Sun altitude
Rises 01:40:22 0° 350° (N) 2,983 8.3 -18.0°
Reaches altitude 10° 01:42:38 10° 352° (N) 2,065 7.3 -17.9°
Maximum altitude 01:47:14 82° 80° (E) 660 3.6 -17.7°
Enters shadow 01:49:26 30° 165° (SSE) 1,145 4.4 -17.6°
